This is the latest recevied weather packets stored in our database for station/object W4ZHA. If no packets are shown the sender has not sent any weather packets the latest 10 day(s).
| Time | Temp. | Humidity | Pressure | Rain* | Wind** | Luminosity | Snow |
|---|---|---|---|---|---|---|---|
| 1777855032 | 15° C | 59% | 1016.8 hPa | 0 mm | - | 0 W/m² | - |
| 1777854729 | 15.56° C | 57% | 1016.8 hPa | 0 mm | - | 0 W/m² | - |
| 1777854426 | 16.11° C | 56% | 1016.8 hPa | 0 mm | - | 0 W/m² | - |
| 1777854123 | 16.67° C | 55% | 1016.8 hPa | 0 mm | - | 1 W/m² | - |
| 1777853821 | 16.67° C | 55% | 1016.8 hPa | 0 mm | - | 4 W/m² | - |
| 1777853517 | 17.22° C | 53% | 1016.8 hPa | 0 mm | - | 6 W/m² | - |
| 1777853214 | 17.22° C | 53% | 1016.8 hPa | 0 mm | - | 9 W/m² | - |
| 1777852911 | 17.78° C | 52% | 1016.5 hPa | 0 mm | - | 12 W/m² | - |
| 1777852609 | 18.33° C | 53% | 1016.8 hPa | 0 mm | - | 16 W/m² | - |
| 1777852305 | 18.33° C | 52% | 1016.8 hPa | 0 mm | - | 18 W/m² | - |
| 1777852004 | 18.89° C | 51% | 1016.8 hPa | 0 mm | - | 21 W/m² | - |
| 1777851702 | 18.89° C | 51% | 1017.2 hPa | 0 mm | - | 23 W/m² | - |
| 1777851398 | 20° C | 57% | 1016.8 hPa | 0 mm | - | 25 W/m² | - |
| 1777851094 | 20° C | 56% | 1016.8 hPa | 0 mm | - | 27 W/m² | - |
| 1777850791 | 20° C | 55% | 1017.2 hPa | 0 mm | - | 29 W/m² | - |
| 1777850488 | 20° C | 55% | 1016.8 hPa | 0 mm | - | 31 W/m² | - |
| 1777850186 | 20.56° C | 55% | 1016.8 hPa | 0 mm | - | 31 W/m² | - |
| 1777849882 | 20.56° C | 55% | 1016.8 hPa | 0 mm | - | 35 W/m² | - |
| 1777849579 | 20.56° C | 55% | 1016.8 hPa | 0 mm | - | 37 W/m² | - |
| 1777849277 | 20.56° C | 53% | 1017.2 hPa | 0 mm | - | 43 W/m² | - |
| 1777848974 | 20.56° C | 52% | 1017.2 hPa | 0 mm | - | 63 W/m² | - |
| 1777848673 | 20.56° C | 50% | 1016.8 hPa | 0 mm | - | 45 W/m² | - |
| 1777848371 | 21.11° C | 49% | 1016.8 hPa | 0 mm | - | 50 W/m² | - |
| 1777848069 | 21.67° C | 48% | 1017.2 hPa | 0 mm | - | 295 W/m² | - |
| 1777847767 | 21.67° C | 47% | 1017.2 hPa | 0 mm | - | 319 W/m² | - |
* Rain latest hour (hover to see other rain measurements)
** Current wind speed in m/s (hover to see current wind gust speed)